Overview Statistics Trail Chart Weather Telemetry Raw packets
 

This is the latest recevied weather packets stored in our database for station/object AB4KY. If no packets are shown the sender has not sent any weather packets the latest 10 day(s).

<< 93 94 95 96 97 98 99 >>
Time Temp. Humidity Pressure Rain* Wind** Luminosity Snow
1787925707 23.89° C 85% 1017.6 hPa 0 mm - 368 W/m² -
1787925402 23.89° C 85% 1017.8 hPa 0 mm - 335 W/m² -
1787925102 23.89° C 84% 1017.5 hPa 0 mm - 286 W/m² -
1787924800 24.44° C 85% 1017.5 hPa 0 mm - 292 W/m² -
1787924496 24.44° C 84% 1017.6 hPa 0 mm - 265 W/m² -
1787924191 24.44° C 85% 1017.5 hPa 0 mm - 254 W/m² -
1787923885 22.78° C 94% 1017.5 hPa 0 mm - 213 W/m² -
1787923580 22.22° C 99% 1017.4 hPa 0 mm - 191 W/m² -
1787923276 21.67° C 99% 1017.4 hPa 0 mm - 198 W/m² -
1787922975 20.56° C 99% 1017.4 hPa 0 mm - 188 W/m² -
1787922670 20° C 99% 1017.5 hPa 0 mm - 159 W/m² -
1787922369 20° C 99% 1017.5 hPa 0 mm - 86 W/m² -
1787922068 19.44° C 99% 1017.3 hPa 0 mm - 64 W/m² -
1787921767 19.44° C 99% 1017.3 hPa 0 mm - 59 W/m² -
1787921462 19.44° C 99% 1017.4 hPa 0 mm - 55 W/m² -
1787921156 19.44° C 99% 1017.4 hPa 0 mm - 53 W/m² -
1787920851 19.44° C 99% 1017.6 hPa 0 mm - 50 W/m² -
1787920546 19.44° C 99% 1017.5 hPa 0 mm - 53 W/m² -
1787920246 18.89° C 99% 1017.6 hPa 0 mm - 53 W/m² -
1787919939 18.89° C 99% 1017.2 hPa 0 mm - 44 W/m² -
1787919637 18.89° C 99% 1017.3 hPa 0 mm - 35 W/m² -
1787919327 18.89° C 99% 1017.3 hPa 0 mm - 31 W/m² -
1787919023 18.89° C 99% 1017.2 hPa 0 mm - 28 W/m² -
1787918718 18.33° C 99% 1017 hPa 0 mm - 28 W/m² -
1787918416 18.33° C 99% 1017.1 hPa 0 mm - 26 W/m² -

* Rain latest hour (hover to see other rain measurements)
** Current wind speed in m/s (hover to see current wind gust speed)